820  
ASUS44 KLCH 170110  
RWRLCH  
REGIONAL WEATHER ROUNDUP  
NATIONAL WEATHER SERVICE LAKE CHARLES LA  
800 PM CDT FRI APR 16 2021  
 
NOTE: "FAIR" INDICATES FEW OR NO CLOUDS BELOW 12,000 FEET WITH NO  
SIGNIFICANT WEATHER AND/OR S TO VISIBILITY
.  
 
ACROSS SOUTHEAST TEXAS  
 
CITY SKY/WX TMP DP RH WIND PRES REMARKS
 
BEAUMONT LGT RAIN 64 64 100 NE10G21 29.76R  
BEAUMONT CITY DRIZZLE 65 64 96 NE7 29.77R  
ORANGE DRIZZLE 64 63 94 E9 29.78  
JASPER LGT RAIN 61 59 94 N6 29.82R FOG  

 
 
ACROSS CENTRAL LOUISIANA  
 
CITY SKY/WX TMP DP RH WIND PRES REMARKS
 
LEESVILLE LGT RAIN 60 59 99 NW13 29.82  
FULLERTON CLOUDY 61 58 90 VRB5 29.78R  
ALEXANDRIA INT LGT RAIN 61 58 90 E5 29.79R  
ESLER FIELD CLOUDY 60 58 92 SE7 29.80R  
DERIDDER RAIN 60 60 100 E6 29.80F  
OAKDALE RAIN 61 59 94 CALM 29.80R  
OPELOUSAS DRIZZLE 63 61 94 E7 29.79F  

 
 
ACROSS SOUTHWEST AND SOUTH CENTRAL LOUISIANA  
 
CITY SKY/WX TMP DP RH WIND PRES REMARKS
 
DEQUINCY NOT AVBL  
SULPHUR CLOUDY 64 62 93 NE10G20 29.79R  
LAKE CHARLES LGT RAIN 65 63 93 NE15 29.78R FOG  
CHENNAULT INT LGT RAIN 63 61 94 NE8 29.79R FOG  
JENNINGS CLOUDY 63 63 100 E8 29.80R  
LAFAYETTE CLOUDY 64 62 93 NE8 29.81R  
NEW IBERIA CLOUDY 65 63 93 E8 29.80R  
ABBEVILLE DRIZZLE 65 61 87 E3 29.79R  
PATTERSON CLOUDY 65 64 97 E9 29.80R  
SALT POINT N/A 67 64 90 VRB6 29.77R  

 
 
SELECTED SITES ACROSS THE REGION  
 
CITY SKY/WX TMP DP RH WIND PRES REMARKS
 
HOUSTON BUSH DRIZZLE 69 66 90 NE8 29.77R FOG  
HOUSTON HOBBY CLOUDY 70 67 90 N17 29.73F  
GALVESTON CLOUDY 74 71 91 SE5 29.73R FOG  
COLLEGE STAT CLOUDY 63 60 90 N12 29.83R  
CONROE LGT RAIN 66 64 93 N3 29.80R FOG  
HUNTSVILLE CLOUDY 61 61 100 VRB5 29.84R  
LUFKIN CLOUDY 61 61 100 CALM 29.83R  
SHREVEPORT LGT RAIN 58 54 86 N6 29.85R  
MONROE LGT RAIN 57 55 93 E5 29.82F  
NATCHEZ MS LGT RAIN 59 57 93 SE9 29.80F  
BATON ROUGE CLOUDY 64 63 96 N5 29.82R  
N.O. INTL ARPT LGT RAIN 67 61 81 NE7 29.80S  
SLIDELL LGT RAIN 67 63 87 N6 29.83R  

 
 
MARINE REPORTS  
 
STATION/POSITION TIME SKY/WX TEMP WIND PRES VSBY
 
AIR SEA DIR/SP/G  
(UTC) (F) (DEG/KT/KT) (MB) (MI)  
BUOY 30 S HIGH I 0050 73 72 100/ 4/ 6 1006.1R  
SEA RIM ST PARK NOT AVBL  
PORT ARTHUR 0024 65 72 10/ 10/ 13 1007.3  
TEXAS POINT 0024 68 72 50/ 9/ 11 1005.2  
CALCASIEU PASS 0024 67 71 100/ 11/ 16 1005.5  
LK CHARLES BEACH 0024 63 71 1008.4  
MARSH ISLAND NOT AVBL  
FRESH WATER LOCK 0024 60/ 9/ 14 N/A  
AMERADA PASS 0024 67 67 90/ 12/ 14 1008.0  

 
 
 
CLICK HERE TO GO TO PREVIOUS BULLETINS.

The Nexlab LA Page
The Nexlab TX Page Main Text Page